| time (UTC) | temp F | wind direction | speed knots | gust knots | rain 1hr in | rain 24hr in | rain mn in | humidity % | barometer mb |
| 20260510000853 | 57 | 359 | 0.0 | 0.9 | 0.00 | 0.00 | 0.00 | 89 | 1014.1 |
| 20260510000356 | 57 | 359 | 0.0 | 0.9 | 0.00 | 0.00 | 0.00 | 89 | 1014.0 |
| 20260509235852 | 57 | 358 | 0.0 | 0.9 | 0.00 | 0.00 | 0.00 | 89 | 1014.1 |
| 20260509235354 | 57 | 358 | 0.0 | 0.0 | 0.00 | 0.00 | 0.00 | 87 | 1014.1 |
| 20260509234853 | 57 | 359 | 0.0 | 0.0 | 0.00 | 0.00 | 0.00 | 87 | 1014.3 |
| 20260509234356 | 57 | 359 | 0.0 | 0.0 | 0.00 | 0.00 | 0.00 | 87 | 1014.2 |
| 20260509233854 | 58 | 359 | 0.0 | 0.0 | 0.00 | 0.00 | 0.00 | 87 | 1014.1 |
| 20260509232854 | 58 | 359 | 0.0 | 0.0 | 0.00 | 0.00 | 0.00 | 87 | 1014.5 |
| 20260509232356 | 58 | 358 | 0.0 | 0.0 | 0.00 | 0.00 | 0.00 | 87 | 1014.4 |
| 20260509231854 | 57 | 358 | 0.0 | 0.0 | 0.00 | 0.00 | 0.00 | 87 | 1014.6 |
| 20260509231356 | 57 | 359 | 0.0 | 0.0 | 0.00 | 0.00 | 0.00 | 87 | 1014.4 |
| 20260509230856 | 57 | 359 | 0.0 | 0.0 | 0.00 | 0.00 | 0.00 | 87 | 1014.2 |
| 20260509230356 | 57 | 359 | 0.0 | 0.0 | 0.00 | 0.00 | 0.00 | 87 | 1014.2 |
| 20260509225854 | 57 | 355 | 0.0 | 0.9 | 0.00 | 0.00 | 0.00 | 87 | 1014.3 |
| 20260509225355 | 57 | 355 | 0.0 | 0.9 | 0.00 | 0.00 | 0.00 | 87 | 1014.3 |
| 20260509224854 | 57 | 357 | 0.0 | 0.9 | 0.00 | 0.00 | 0.00 | 87 | 1014.1 |
| 20260509224357 | 57 | 357 | 0.0 | 0.9 | 0.00 | 0.00 | 0.00 | 87 | 1014.1 |
| 20260509223356 | 58 | 310 | 0.0 | 0.9 | 0.00 | 0.00 | 0.00 | 86 | 1014.0 |
| 20260509222853 | 58 | 311 | 0.0 | 0.9 | 0.00 | 0.00 | 0.00 | 86 | 1014.2 |
| 20260509222354 | 58 | 311 | 0.0 | 0.9 | 0.00 | 0.00 | 0.00 | 86 | 1014.1 |
| 20260509221853 | 58 | 311 | 0.0 | 0.9 | 0.00 | 0.00 | 0.00 | 86 | 1014.2 |
| 20260509221354 | 58 | 311 | 0.0 | 0.0 | 0.00 | 0.00 | 0.00 | 85 | 1014.1 |
| 20260509220853 | 58 | 312 | 0.0 | 0.0 | 0.00 | 0.00 | 0.00 | 85 | 1013.9 |
| 20260509220355 | 58 | 312 | 0.0 | 0.9 | 0.00 | 0.00 | 0.00 | 86 | 1013.8 |
| 20260509215854 | 58 | 312 | 0.0 | 0.9 | 0.00 | 0.00 | 0.00 | 86 | 1013.6 |
| 20260509215354 | 58 | 312 | 0.0 | 0.0 | 0.00 | 0.00 | 0.00 | 85 | 1013.5 |
| 20260509214853 | 59 | 312 | 0.0 | 0.0 | 0.00 | 0.00 | 0.00 | 85 | 1013.4 |
| 20260509214354 | 59 | 312 | 0.0 | 0.0 | 0.00 | 0.00 | 0.00 | 85 | 1013.5 |
| 20260509213853 | 59 | 312 | 0.0 | 0.0 | 0.00 | 0.00 | 0.00 | 83 | 1013.8 |
| 20260509212852 | 60 | 312 | 0.0 | 0.0 | 0.00 | 0.00 | 0.00 | 83 | 1013.5 |
| 20260509212356 | 60 | 312 | 0.0 | 0.0 | 0.00 | 0.00 | 0.00 | 82 | 1013.8 |
| 20260509211354 | 60 | 312 | 0.0 | 0.9 | 0.00 | 0.00 | 0.00 | 82 | 1013.9 |
| 20260509210853 | 60 | 312 | 0.0 | 0.9 | 0.00 | 0.00 | 0.00 | 82 | 1013.9 |
| 20260509210354 | 60 | 312 | 0.0 | 0.0 | 0.00 | 0.00 | 0.00 | 81 | 1013.6 |
| 20260509205854 | 61 | 312 | 0.0 | 0.9 | 0.00 | 0.00 | 0.00 | 81 | 1013.8 |
| 20260509205355 | 61 | 312 | 0.0 | 1.7 | 0.00 | 0.00 | 0.00 | 80 | 1013.8 |
| 20260509204855 | 61 | 312 | 0.9 | 2.6 | 0.00 | 0.00 | 0.00 | 80 | 1013.7 |
| 20260509204353 | 62 | 312 | 0.0 | 2.6 | 0.00 | 0.00 | 0.00 | 80 | 1013.9 |
| 20260509203852 | 62 | 329 | 0.0 | 1.7 | 0.00 | 0.00 | 0.00 | 80 | 1014.0 |
| 20260509203355 | 62 | 102 | 0.0 | 0.9 | 0.00 | 0.00 | 0.00 | 79 | 1014.0 |
| 20260509202853 | 62 | 126 | 0.0 | 0.0 | 0.00 | 0.00 | 0.00 | 79 | 1014.0 |
| 20260509202352 | 62 | 126 | 0.0 | 0.0 | 0.00 | 0.00 | 0.00 | 79 | 1014.0 |
| 20260509201853 | 62 | 126 | 0.0 | 0.9 | 0.00 | 0.00 | 0.00 | 79 | 1014.1 |
| 20260509201354 | 62 | 126 | 0.0 | 0.9 | 0.00 | 0.00 | 0.00 | 79 | 1014.0 |
| 20260509200851 | 62 | 132 | 0.0 | 0.9 | 0.00 | 0.00 | 0.00 | 80 | 1014.0 |
| 20260509200353 | 62 | 130 | 0.0 | 0.0 | 0.00 | 0.00 | 0.00 | 81 | 1014.0 |
| 20260509195853 | 62 | 130 | 0.0 | 0.0 | 0.00 | 0.00 | 0.00 | 80 | 1014.1 |
| 20260509195353 | 62 | 130 | 0.0 | 0.0 | 0.00 | 0.00 | 0.00 | 78 | 1014.1 |
| 20260509194851 | 62 | 130 | 0.0 | 0.0 | 0.00 | 0.00 | 0.00 | 78 | 1014.1 |
| 20260509194354 | 63 | 130 | 0.0 | 0.9 | 0.00 | 0.00 | 0.00 | 78 | 1013.8 |
| 20260509193852 | 63 | 130 | 0.0 | 0.9 | 0.00 | 0.00 | 0.00 | 78 | 1014.1 |
| 20260509193352 | 63 | 130 | 0.0 | 0.9 | 0.00 | 0.00 | 0.00 | 80 | 1014.1 |
| 20260509192855 | 63 | 130 | 0.0 | 0.0 | 0.00 | 0.00 | 0.00 | 80 | 1013.8 |
| 20260509192354 | 64 | 130 | 0.0 | 0.0 | 0.00 | 0.00 | 0.00 | 79 | 1013.7 |
| 20260509191852 | 64 | 130 | 0.0 | 0.0 | 0.00 | 0.00 | 0.00 | 76 | 1013.5 |
| 20260509191355 | 64 | 130 | 0.0 | 0.0 | 0.00 | 0.00 | 0.00 | 76 | 1013.5 |
| 20260509190352 | 65 | 130 | 0.0 | 0.0 | 0.00 | 0.00 | 0.00 | 75 | 1013.1 |
| 20260509185855 | 65 | 130 | 0.0 | 0.9 | 0.00 | 0.00 | 0.00 | 77 | 1013.0 |
| 20260509185356 | 66 | 130 | 0.0 | 0.9 | 0.00 | 0.00 | 0.00 | 77 | 1013.1 |
| 20260509184853 | 66 | 130 | 0.9 | 0.9 | 0.00 | 0.00 | 0.00 | 76 | 1012.7 |
| 20260509184356 | 66 | 130 | 0.0 | 0.9 | 0.00 | 0.00 | 0.00 | 76 | 1012.9 |
| 20260509183852 | 67 | 130 | 0.0 | 0.9 | 0.00 | 0.00 | 0.00 | 76 | 1012.6 |
| 20260509182854 | 67 | 130 | 0.0 | 0.9 | 0.00 | 0.00 | 0.00 | 75 | 1012.5 |
| 20260509181853 | 67 | 130 | 0.0 | 0.9 | 0.00 | 0.00 | 0.00 | 74 | 1012.6 |
| 20260509181355 | 68 | 129 | 0.0 | 0.9 | 0.00 | 0.00 | 0.00 | 75 | 1012.5 |
| 20260509180852 | 68 | 129 | 0.0 | 1.7 | 0.00 | 0.00 | 0.00 | 74 | 1012.2 |
| 20260509180353 | 68 | 129 | 0.0 | 1.7 | 0.00 | 0.00 | 0.00 | 73 | 1012.5 |
| 20260509175853 | 69 | 122 | 0.0 | 0.9 | 0.00 | 0.00 | 0.00 | 73 | 1012.6 |
| 20260509175353 | 69 | 126 | 0.0 | 0.9 | 0.00 | 0.00 | 0.00 | 71 | 1012.4 |
| 20260509174355 | 71 | 72 | 0.0 | 1.7 | 0.00 | 0.00 | 0.00 | 67 | 1012.7 |
| 20260509173850 | 72 | 338 | 0.0 | 1.7 | 0.00 | 0.00 | 0.00 | 66 | 1012.8 |
| 20260509173352 | 72 | 303 | 0.0 | 0.0 | 0.00 | 0.00 | 0.00 | 63 | 1012.7 |
| 20260509172350 | 72 | 304 | 0.0 | 0.0 | 0.00 | 0.00 | 0.00 | 64 | 1013.0 |
| 20260509171848 | 72 | 297 | 0.0 | 0.0 | 0.00 | 0.00 | 0.00 | 62 | 1012.8 |
| 20260509171348 | 73 | 297 | 0.0 | 0.0 | 0.00 | 0.00 | 0.00 | 65 | 1012.6 |
| 20260509170850 | 72 | 297 | 0.0 | 0.9 | 0.00 | 0.00 | 0.00 | 62 | 1012.8 |
| 20260509165850 | 73 | 296 | 0.0 | 1.7 | 0.00 | 0.00 | 0.00 | 58 | 1012.5 |
| 20260509164348 | 74 | 169 | 0.0 | 0.9 | 0.00 | 0.00 | 0.00 | 55 | 1012.4 |
| 20260509163852 | 74 | 169 | 0.0 | 0.9 | 0.00 | 0.00 | 0.00 | 53 | 1012.6 |
| 20260509162837 | 75 | 161 | 0.0 | 0.0 | 0.00 | 0.00 | 0.00 | 55 | 1012.5 |
| 20260509161838 | 76 | 161 | 0.0 | 0.0 | 0.00 | 0.00 | 0.00 | 48 | 1012.8 |
| 20260509161337 | 76 | 161 | 0.0 | 0.0 | 0.00 | 0.00 | 0.00 | 47 | 1012.5 |
| 20260509160334 | 77 | 161 | 0.0 | 0.0 | 0.00 | 0.00 | 0.00 | 40 | 1012.9 |
| 20260509155839 | 77 | 161 | 0.0 | 0.0 | 0.00 | 0.00 | 0.00 | 38 | 1012.9 |
| 20260509155335 | 77 | 161 | 0.0 | 0.9 | 0.00 | 0.00 | 0.00 | 38 | 1012.7 |
| 20260509154834 | 77 | 154 | 0.0 | 0.9 | 0.00 | 0.00 | 0.00 | 38 | 1013.0 |
| 20260509154338 | 77 | 152 | 0.0 | 0.0 | 0.00 | 0.00 | 0.00 | 37 | 1013.1 |
| 20260509153837 | 77 | 152 | 0.0 | 0.0 | 0.00 | 0.00 | 0.00 | 38 | 1013.1 |
| 20260509153335 | 78 | 152 | 0.0 | 0.9 | 0.00 | 0.00 | 0.00 | 37 | 1013.2 |
| 20260509152836 | 78 | 152 | 0.0 | 1.7 | 0.00 | 0.00 | 0.00 | 36 | 1013.1 |
| 20260509152334 | 77 | 147 | 0.9 | 1.7 | 0.00 | 0.00 | 0.00 | 37 | 1013.2 |
| 20260509151829 | 77 | 313 | 0.0 | 0.9 | 0.00 | 0.00 | 0.00 | 39 | 1013.2 |
| 20260509151330 | 76 | 315 | 0.0 | 1.7 | 0.00 | 0.00 | 0.00 | 40 | 1013.1 |
| 20260509150315 | 77 | 129 | 0.0 | 1.7 | 0.00 | 0.00 | 0.00 | 37 | 1013.3 |
| 20260509145317 | 78 | 133 | 0.9 | 2.6 | 0.00 | 0.00 | 0.00 | 39 | 1013.2 |
| 20260509144805 | 78 | 187 | 0.0 | 0.9 | 0.00 | 0.00 | 0.00 | 40 | 1013.3 |
| 20260509144305 | 78 | 246 | 0.0 | 0.9 | 0.00 | 0.00 | 0.00 | 39 | 1013.6 |
| 20260509143805 | 78 | 303 | 0.0 | 0.9 | 0.00 | 0.00 | 0.00 | 41 | 1013.6 |
| 20260509143253 | 78 | 303 | 0.0 | 0.0 | 0.00 | 0.00 | 0.00 | 41 | 1013.7 |
| 20260509142754 | 77 | 306 | 0.0 | 1.7 | 0.00 | 0.00 | 0.00 | 42 | 1013.5 |
| 20260509142251 | 77 | 306 | 0.0 | 2.6 | 0.00 | 0.00 | 0.00 | 43 | 1013.8 |
| 20260509141757 | 77 | 306 | 0.9 | 2.6 | 0.00 | 0.00 | 0.00 | 43 | 1013.8 |
| 20260509140754 | 77 | 144 | 0.0 | 1.7 | 0.00 | 0.00 | 0.00 | 42 | 1013.8 |
| 20260509140253 | 77 | 169 | 0.0 | 0.9 | 0.00 | 0.00 | 0.00 | 43 | 1014.0 |
| 20260509135754 | 76 | 214 | 0.0 | 0.0 | 0.00 | 0.00 | 0.00 | 45 | 1014.2 |
| 20260509135251 | 77 | 214 | 0.0 | 0.0 | 0.00 | 0.00 | 0.00 | 47 | 1013.9 |
| 20260509134755 | 77 | 214 | 0.0 | 0.0 | 0.00 | 0.00 | 0.00 | 49 | 1014.3 |
| 20260509133752 | 77 | 214 | 0.0 | 0.0 | 0.00 | 0.00 | 0.00 | 44 | 1014.2 |
| 20260509133253 | 77 | 215 | 0.0 | 0.9 | 0.00 | 0.00 | 0.00 | 44 | 1014.3 |
| 20260509132254 | 78 | 159 | 0.0 | 0.9 | 0.00 | 0.00 | 0.00 | 45 | 1014.7 |
| 20260509131752 | 78 | 149 | 0.0 | 0.9 | 0.00 | 0.00 | 0.00 | 44 | 1014.5 |
| 20260509131251 | 78 | 119 | 0.0 | 0.9 | 0.00 | 0.00 | 0.00 | 47 | 1014.5 |
| 20260509130752 | 79 | 106 | 0.0 | 2.6 | 0.00 | 0.00 | 0.00 | 46 | 1014.5 |
| 20260509130253 | 78 | 110 | 0.0 | 2.6 | 0.00 | 0.00 | 0.00 | 44 | 1014.6 |
| 20260509125752 | 78 | 169 | 0.0 | 2.6 | 0.00 | 0.00 | 0.00 | 44 | 1014.5 |
| 20260509125251 | 80 | 164 | 0.9 | 2.6 | 0.00 | 0.00 | 0.00 | 42 | 1014.4 |
| 20260509124252 | 79 | 147 | 0.9 | 5.2 | 0.00 | 0.00 | 0.00 | 42 | 1014.5 |
| 20260509123255 | 80 | 11 | 0.0 | 0.9 | 0.00 | 0.00 | 0.00 | 39 | 1014.6 |
| 20260509122251 | 79 | 310 | 0.0 | 1.7 | 0.00 | 0.00 | 0.00 | 39 | 1014.7 |
| 20260509121753 | 80 | 147 | 0.9 | 0.9 | 0.00 | 0.00 | 0.00 | 37 | 1014.7 |
| 20260509120753 | 78 | 137 | 0.0 | 1.7 | 0.00 | 0.00 | 0.00 | 38 | 1014.7 |
| 20260509120252 | 80 | 210 | 0.0 | 2.6 | 0.00 | 0.00 | 0.00 | 35 | 1014.8 |
| 20260509115754 | 78 | 201 | 0.0 | 2.6 | 0.00 | 0.00 | 0.00 | 41 | 1014.9 |
| 20260509115252 | 79 | 257 | 0.9 | 5.2 | 0.00 | 0.00 | 0.00 | 38 | 1014.8 |
| 20260509114753 | 78 | 304 | 0.0 | 5.2 | 0.00 | 0.00 | 0.00 | 38 | 1014.8 |
| 20260509114251 | 79 | 151 | 0.0 | 0.9 | 0.00 | 0.00 | 0.00 | 37 | 1015.0 |
| 20260509113744 | 79 | 146 | 0.0 | 0.9 | 0.00 | 0.00 | 0.00 | 38 | 1014.8 |
| 20260509113238 | 77 | 6 | 0.0 | 2.6 | 0.00 | 0.00 | 0.00 | 41 | 1014.8 |
| 20260509112739 | 77 | 310 | 0.9 | 2.6 | 0.00 | 0.00 | 0.00 | 40 | 1014.8 |
| 20260509112238 | 78 | 217 | 0.0 | 1.7 | 0.00 | 0.00 | 0.00 | 39 | 1015.1 |
| 20260509111738 | 79 | 216 | 0.0 | 1.7 | 0.00 | 0.00 | 0.00 | 41 | 1015.2 |
| 20260509110234 | 78 | 187 | 0.0 | 0.9 | 0.00 | 0.00 | 0.00 | 43 | 1015.2 |
| 20260509105728 | 78 | 183 | 0.0 | 0.9 | 0.00 | 0.00 | 0.00 | 44 | 1015.0 |
| 20260509105228 | 78 | 224 | 0.0 | 0.9 | 0.00 | 0.00 | 0.00 | 45 | 1015.1 |
| 20260509104724 | 78 | 97 | 0.0 | 0.9 | 0.00 | 0.00 | 0.00 | 48 | 1015.1 |
| 20260509104202 | 77 | 97 | 0.0 | 0.9 | 0.00 | 0.00 | 0.00 | 49 | 1015.1 |
| 20260509103154 | 76 | 90 | 0.0 | 2.6 | 0.00 | 0.00 | 0.00 | 48 | 1015.3 |
| 20260509102700 | 77 | 183 | 1.7 | 2.6 | 0.00 | 0.00 | 0.00 | 48 | 1015.2 |
| 20260509101656 | 75 | 334 | 0.0 | 1.7 | 0.00 | 0.00 | 0.00 | 56 | 1015.3 |
| 20260509101154 | 75 | 51 | 0.0 | 0.9 | 0.00 | 0.00 | 0.00 | 55 | 1015.4 |
| 20260509095152 | 73 | 305 | 0.0 | 1.7 | 0.00 | 0.00 | 0.00 | 54 | 1015.6 |
| 20260509094157 | 74 | 63 | 0.0 | 0.9 | 0.00 | 0.00 | 0.00 | 58 | 1015.7 |
| 20260509093655 | 74 | 63 | 0.0 | 0.9 | 0.00 | 0.00 | 0.00 | 55 | 1015.8 |
| 20260509092152 | 71 | 41 | 0.0 | 0.9 | 0.00 | 0.00 | 0.00 | 61 | 1015.9 |
| 20260509091655 | 71 | 135 | 0.9 | 0.9 | 0.00 | 0.00 | 0.00 | 61 | 1015.8 |
| 20260509091153 | 71 | 132 | 0.0 | 0.9 | 0.00 | 0.00 | 0.00 | 64 | 1016.1 |
| 20260509090654 | 71 | 138 | 0.0 | 0.9 | 0.00 | 0.00 | 0.00 | 64 | 1016.0 |
| 20260509090151 | 71 | 138 | 0.0 | 0.9 | 0.00 | 0.00 | 0.00 | 63 | 1016.0 |
| 20260509085656 | 69 | 140 | 0.0 | 1.7 | 0.00 | 0.00 | 0.00 | 71 | 1016.2 |
| 20260509084654 | 69 | 315 | 0.0 | 1.7 | 0.00 | 0.00 | 0.00 | 68 | 1016.0 |
| 20260509084153 | 67 | 316 | 0.0 | 1.7 | 0.00 | 0.00 | 0.00 | 74 | 1015.9 |
| 20260509083152 | 67 | 304 | 0.0 | 0.9 | 0.00 | 0.00 | 0.00 | 78 | 1016.2 |
| 20260509082646 | 65 | 305 | 0.0 | 1.7 | 0.00 | 0.00 | 0.00 | 79 | 1016.3 |
| 20260509080644 | 61 | 176 | 0.0 | 1.7 | 0.00 | 0.00 | 0.00 | 85 | 1016.6 |
| 20260509080143 | 59 | 272 | 0.0 | 1.7 | 0.00 | 0.00 | 0.00 | 88 | 1016.6 |
| 20260509075144 | 59 | 19 | 0.0 | 0.9 | 0.00 | 0.00 | 0.00 | 87 | 1016.7 |
| 20260509074648 | 59 | 33 | 0.0 | 0.9 | 0.00 | 0.00 | 0.00 | 86 | 1016.6 |
| 20260509074143 | 59 | 33 | 0.0 | 0.9 | 0.00 | 0.00 | 0.00 | 88 | 1016.7 |
| 20260509073647 | 59 | 33 | 0.0 | 0.0 | 0.00 | 0.00 | 0.00 | 86 | 1016.8 |
| 20260509073143 | 59 | 22 | 0.0 | 0.9 | 0.00 | 0.00 | 0.00 | 87 | 1016.7 |
| 20260509072647 | 59 | 22 | 0.0 | 0.9 | 0.00 | 0.00 | 0.00 | 87 | 1016.8 |
| 20260509072143 | 59 | 331 | 0.0 | 0.0 | 0.00 | 0.00 | 0.00 | 88 | 1016.8 |
| 20260509071648 | 59 | 331 | 0.0 | 0.0 | 0.00 | 0.00 | 0.00 | 88 | 1016.7 |
| 20260509071118 | 58 | 332 | 0.0 | 0.0 | 0.00 | 0.00 | 0.00 | 88 | 1016.9 |
| 20260509070118 | 58 | 333 | 0.0 | 0.0 | 0.00 | 0.00 | 0.00 | 89 | 1016.9 |
| 20260509065612 | 57 | 333 | 0.0 | 0.0 | 0.00 | 0.00 | 0.00 | 90 | 1017.0 |
| 20260509065100 | 57 | 333 | 0.0 | 0.0 | 0.00 | 0.00 | 0.00 | 91 | 1017.0 |
| 20260509064601 | 57 | 333 | 0.0 | 0.0 | 0.00 | 0.00 | 0.00 | 91 | 1017.2 |
| 20260509063558 | 56 | 333 | 0.0 | 0.0 | 0.00 | 0.00 | 0.00 | 93 | 1017.2 |
| 20260509063100 | 56 | 333 | 0.0 | 0.0 | 0.00 | 0.00 | 0.00 | 94 | 1017.3 |
| 20260509062059 | 55 | 333 | 0.0 | 0.0 | 0.00 | 0.00 | 0.00 | 95 | 1017.3 |
| 20260509061603 | 55 | 333 | 0.0 | 0.0 | 0.00 | 0.00 | 0.00 | 95 | 1017.2 |
| 20260509061101 | 55 | 332 | 0.0 | 0.0 | 0.00 | 0.00 | 0.00 | 95 | 1017.1 |
| 20260509060601 | 55 | 332 | 0.0 | 0.0 | 0.00 | 0.00 | 0.00 | 95 | 1017.0 |
| 20260509055059 | 55 | 332 | 0.0 | 0.0 | 0.00 | 0.00 | 0.00 | 96 | 1017.2 |
| 20260509054059 | 54 | 332 | 0.0 | 0.0 | 0.00 | 0.00 | 0.00 | 96 | 1017.1 |
| 20260509053601 | 54 | 332 | 0.0 | 0.0 | 0.00 | 0.00 | 0.00 | 96 | 1016.9 |
| 20260509053100 | 54 | 332 | 0.0 | 0.0 | 0.00 | 0.00 | 0.00 | 96 | 1017.0 |
| 20260509052601 | 54 | 332 | 0.0 | 0.0 | 0.00 | 0.00 | 0.00 | 96 | 1016.8 |
| 20260509051602 | 53 | 332 | 0.0 | 0.0 | 0.00 | 0.00 | 0.00 | 96 | 1016.7 |
| 20260509051058 | 53 | 332 | 0.0 | 0.9 | 0.00 | 0.00 | 0.00 | 96 | 1017.0 |
| 20260509050601 | 52 | 332 | 0.0 | 0.9 | 0.00 | 0.00 | 0.00 | 95 | 1016.9 |
| 20260509050059 | 52 | 332 | 0.0 | 1.7 | 0.00 | 0.00 | 0.00 | 95 | 1016.6 |
| 20260509045558 | 52 | 332 | 0.0 | 1.7 | 0.00 | 0.00 | 0.00 | 95 | 1016.4 |
| 20260509045048 | 53 | 334 | 0.0 | 0.0 | 0.00 | 0.00 | 0.00 | 95 | 1016.7 |
| 20260509044547 | 53 | 311 | 0.0 | 0.0 | 0.00 | 0.00 | 0.00 | 95 | 1016.6 |
| 20260509044049 | 53 | 299 | 0.0 | 0.0 | 0.00 | 0.00 | 0.00 | 95 | 1016.6 |
| 20260509043550 | 53 | 300 | 0.0 | 0.0 | 0.00 | 0.00 | 0.00 | 95 | 1016.4 |
| 20260509043049 | 52 | 300 | 0.0 | 0.0 | 0.00 | 0.00 | 0.00 | 95 | 1016.3 |
| 20260509042547 | 52 | 300 | 0.0 | 0.0 | 0.00 | 0.00 | 0.00 | 96 | 1016.3 |
| 20260509042050 | 52 | 300 | 0.0 | 0.0 | 0.00 | 0.00 | 0.00 | 95 | 1016.4 |
| 20260509041548 | 52 | 300 | 0.0 | 0.0 | 0.00 | 0.00 | 0.00 | 95 | 1016.0 |
| 20260509041046 | 51 | 300 | 0.0 | 0.0 | 0.00 | 0.00 | 0.00 | 95 | 1016.1 |
| 20260509040548 | 51 | 300 | 0.0 | 0.0 | 0.00 | 0.00 | 0.00 | 95 | 1016.2 |
| 20260509035535 | 51 | 300 | 0.0 | 0.0 | 0.00 | 0.00 | 0.00 | 95 | 1016.1 |
| 20260509035035 | 51 | 300 | 0.0 | 0.0 | 0.00 | 0.00 | 0.00 | 95 | 1016.2 |
| 20260509034534 | 51 | 300 | 0.0 | 0.0 | 0.00 | 0.00 | 0.00 | 95 | 1015.9 |
| 20260509034022 | 51 | 300 | 0.0 | 0.9 | 0.00 | 0.00 | 0.00 | 95 | 1015.8 |
| 20260509033522 | 50 | 300 | 0.0 | 0.9 | 0.00 | 0.00 | 0.00 | 95 | 1016.0 |
| 20260509033002 | 51 | 300 | 0.0 | 0.9 | 0.00 | 0.00 | 0.00 | 95 | 1016.0 |
| 20260509032500 | 51 | 300 | 0.0 | 0.0 | 0.00 | 0.00 | 0.00 | 95 | 1015.9 |
| 20260509032000 | 51 | 300 | 0.0 | 0.0 | 0.00 | 0.00 | 0.00 | 95 | 1015.9 |
| 20260509031450 | 50 | 300 | 0.0 | 0.0 | 0.00 | 0.00 | 0.00 | 95 | 1015.8 |
| 20260509030946 | 50 | 300 | 0.0 | 0.0 | 0.00 | 0.00 | 0.00 | 95 | 1015.9 |
| 20260509030449 | 50 | 300 | 0.0 | 0.0 | 0.00 | 0.00 | 0.00 | 95 | 1015.8 |
| 20260509025949 | 50 | 300 | 0.0 | 0.0 | 0.00 | 0.00 | 0.00 | 95 | 1016.0 |
| 20260509025449 | 50 | 300 | 0.0 | 0.0 | 0.00 | 0.00 | 0.00 | 95 | 1015.9 |
| 20260509024946 | 51 | 300 | 0.0 | 0.0 | 0.00 | 0.00 | 0.00 | 95 | 1015.9 |
| 20260509024449 | 51 | 300 | 0.0 | 0.0 | 0.00 | 0.00 | 0.00 | 94 | 1015.8 |
| 20260509023946 | 51 | 300 | 0.0 | 0.0 | 0.00 | 0.00 | 0.00 | 95 | 1015.8 |
| 20260509023447 | 51 | 300 | 0.0 | 0.0 | 0.00 | 0.00 | 0.00 | 95 | 1015.8 |
| 20260509022947 | 51 | 300 | 0.0 | 0.0 | 0.00 | 0.00 | 0.00 | 95 | 1015.7 |
| 20260509021947 | 51 | 300 | 0.0 | 0.0 | 0.00 | 0.00 | 0.00 | 94 | 1015.7 |
| 20260509021449 | 51 | 300 | 0.0 | 0.0 | 0.00 | 0.00 | 0.00 | 94 | 1015.7 |
| 20260509020445 | 51 | 300 | 0.0 | 0.0 | 0.00 | 0.00 | 0.00 | 94 | 1015.8 |
| 20260509015934 | 51 | 300 | 0.0 | 0.0 | 0.00 | 0.00 | 0.00 | 94 | 1015.8 |
| 20260509015435 | 51 | 300 | 0.0 | 0.0 | 0.00 | 0.00 | 0.00 | 94 | 1015.7 |
| 20260509014937 | 51 | 300 | 0.0 | 0.0 | 0.00 | 0.00 | 0.00 | 94 | 1015.8 |
| 20260509014422 | 51 | 300 | 0.0 | 0.0 | 0.00 | 0.00 | 0.00 | 94 | 1015.9 |
| 20260509013926 | 51 | 300 | 0.0 | 0.0 | 0.00 | 0.00 | 0.00 | 94 | 1015.8 |
| 20260509013359 | 52 | 300 | 0.0 | 0.0 | 0.00 | 0.00 | 0.00 | 94 | 1015.8 |
| 20260509012859 | 52 | 300 | 0.0 | 0.0 | 0.00 | 0.00 | 0.00 | 94 | 1015.8 |
| 20260509012402 | 52 | 300 | 0.0 | 0.0 | 0.00 | 0.00 | 0.00 | 94 | 1015.9 |
| 20260509011847 | 52 | 300 | 0.0 | 1.7 | 0.00 | 0.00 | 0.00 | 93 | 1015.7 |
| 20260509011346 | 52 | 300 | 0.0 | 1.7 | 0.00 | 0.00 | 0.00 | 94 | 1015.7 |
| 20260509010850 | 52 | 299 | 0.9 | 0.9 | 0.00 | 0.00 | 0.00 | 94 | 1015.7 |
| 20260509010348 | 52 | 298 | 0.0 | 0.9 | 0.00 | 0.00 | 0.00 | 94 | 1015.8 |
| 20260509005350 | 52 | 298 | 0.0 | 0.9 | 0.00 | 0.00 | 0.00 | 93 | 1015.8 |
| 20260509004345 | 53 | 297 | 0.0 | 0.9 | 0.00 | 0.00 | 0.00 | 93 | 1015.6 |
| 20260509003851 | 53 | 297 | 0.0 | 0.9 | 0.00 | 0.00 | 0.00 | 93 | 1015.7 |
| 20260509003346 | 53 | 297 | 0.9 | 0.9 | 0.00 | 0.00 | 0.00 | 94 | 1015.7 |
| 20260509002846 | 53 | 296 | 0.0 | 0.0 | 0.00 | 0.00 | 0.00 | 93 | 1015.4 |
| 20260509002348 | 53 | 295 | 0.0 | 0.0 | 0.00 | 0.00 | 0.00 | 93 | 1015.4 |
| 20260509001847 | 53 | 296 | 0.0 | 0.0 | 0.00 | 0.00 | 0.00 | 93 | 1015.5 |